Weather Service Report


682 
FPUS83 KFGF 210231
OPUFGF
PRAIRIE TO PINES WEATHER ROUNDUP
NATIONAL WEATHER SERVICE EASTERN NORTH DAKOTA/GRAND FORKS ND
800 PM CST FRI JAN 20 2017

 **SATELLITE DATA USED TO AUGMENT SKY COVER AT AUTOMATED STATIONS**
 *****  WEATHER ACROSS EASTERN NORTH DAKOTA  *****
  
CITY           SKY/WX    TMP DP  RH WIND       PRES   REMARKS
GRAND FORKS    CLOUDY    36  33  89 SE12      29.44F                  
GRAND FORKS AF CLOUDY    34  34 100 SE8       29.43F                  
GRAND CITY NWS NOT AVBL                                               
BUXTON           N/A     34  34  99 SE12        N/A                   
DEVILS LAKE    MIX PCPN  33  32  96 SE9       29.39F VSB 3/4          
FARGO          CLOUDY    39  35  86 SE12      29.44F                  
WAHPETON ARPT  CLOUDY    34  32  93 SE15      29.44S WCI  24          
$$

 *****  WEATHER ACROSS CENTRAL AND WESTERN NORTH DAKOTA  *****
  
CITY           SKY/WX    TMP DP  RH WIND       PRES   REMARKS
JAMESTOWN      CLOUDY    33  33 100 SE13      29.36S FOG     WCI  24  
BISMARCK       CLOUDY    31  30  96 W3        29.35S FOG              
MINOT          CLOUDY    29  27  92 S7        29.34F WCI  22          
MINOT AFB      FRZ DRZL  25  25 100 SW5       29.34S FOG     WCI  19  
GARRISON         N/A     25  25 100 S3        29.34S                  
WILLISTON      FAIR      27  24  89 CALM      29.34F                  
DICKINSON      FAIR      29  26  89 NW10      29.29F WCI  20          
HETTINGER      FAIR      30  26  85 NW7       29.32F WCI  23          
$$

 *****  OTHER OBSERVATIONS NORTHEAST NORTH DAKOTA  *****
  
CITY           SKY/WX    TMP DP  RH WIND       PRES   REMARKS
WALHALLA       NOT AVBL                                               
LANGDON        NOT AVBL                                               
CAVALIER       FOG       34  34 100 SE5       29.45F VSB 3/4          
GRAFTON        CLOUDY    34  34 100 E8        29.46F FOG              
CANDO          NOT AVBL                                               
FORT TOTTEN      N/A     33  33 100 SE6       29.95S                  
ROLLA            N/A    N/A N/A N/A MISG        N/A                   
RUGBY            N/A     32  32 100 SE7       29.37S FOG              
 ***** THE ABOVE OBSERVATIONS ARE NON NWS ARE NOT QUALITY
        CONTROLLED AND MAY MIS-REPORT RAIN FOR SNOW...
$$

 *****  OTHER OBSERVATIONS SOUTHEAST NORTH DAKOTA *****
  
CITY           SKY/WX    TMP DP  RH WIND       PRES   REMARKS
COOPERSTOWN    FOG       34  34 100 SE9       29.40S VSB 1/4          
VALLEY CITY    FOG       32  32 100 S9        29.41S VSB 1/4 WCI  24  
OAKES          NOT AVBL                                               
GWINNER        CLOUDY    36  36 100 SE15      29.40S VSB 1/4          
SHEYENNE NWR     N/A     34  34 100 SE8       29.95S                  
BUFFALO          N/A     33  32  96 NE13        N/A  WCI  24          
WYNDMERE         N/A     34  36 100 SE9         N/A                   
 ***** THE ABOVE OBSERVATIONS ARE NON NWS ARE NOT QUALITY
       CONTROLLED AND MAY MIS-REPORT RAIN FOR SNOW...
$$

  *****  WEATHER ACROSS NORTHERN MINNESOTA  *****     
  
CITY           SKY/WX    TMP DP  RH WIND       PRES   REMARKS
FLAG ISLAND    LGT RAIN  34  34 100 SE7       29.52S                  
WARROAD        LGT RAIN  34  30  86 E6        29.51S                  
ROSEAU         CLOUDY    36  30  80 SE8       29.49F HAZE             
HALLOCK        CLOUDY    36  36 100 SE12      29.46F                  
THF RVR FALLS  CLOUDY    36  34  93 SE14      29.48F                  
HALSTAD          N/A     34  32  92 SE9         N/A                   
FOSSTON        CLOUDY    34  32  93 E9        29.48F FOG              
BAUDETTE       MIX PCPN  34  33  96 SE9       29.52F                  
WASKISH        CLOUDY    36  36 100 SE8       29.52S                  
CROOKSTON      CLOUDY    36  36 100 SE13      29.46F                  
$$
  *****  WEATHER ACROSS CENTRAL AND WEST MINNESOTA  *****     
  
CITY           SKY/WX    TMP DP  RH WIND       PRES   REMARKS
BEMIDJI        CLOUDY    33  33 100 SE9       29.50F FOG              
PARK RAPIDS    FOG       34  32  92 SE8       29.49F VSB 1            
WADENA         CLOUDY    34  34 100 SE7       29.49S FOG              
DETROIT LAKES  CLOUDY    34  34 100 SE13      29.47S FOG     WCI  25  
MOORHEAD       CLOUDY    36  34  93 SE6       29.45F                  
FERGUS FALLS   CLOUDY    36  36 100 SE14      29.49S                  
ELBOW LAKE     CLOUDY    34  34 100 SE12      29.46F FOG              
MORRIS MN      CLOUDY    34  34 100 SE16      29.46S FOG     WCI  23  
STAPLES        FOG       34  34 100 CALM      29.51S VSB 3/4          
WHEATON        CLOUDY    43  43 100 SE15      29.46F FOG              
$$
  *****  WEATHER ELSEWHERE ACROSS MINNESOTA  *****     
  
CITY           SKY/WX    TMP DP  RH WIND       PRES   REMARKS
DULUTH         DRZL/FOG  34  34 100 SE10      29.57F VSB 1/4          
INTRNTL FALLS  LGT RAIN  35  34  96 SE7       29.56F                  
ELY            DRIZZLE   34  34 100 CALM      29.59S                  
CLOQUET        FOG       34  34 100 E6        29.56F VSB 1/2          
BRAINERD       CLOUDY    34  34 100 SE7       29.53R FOG              
HIBBING        CLOUDY    32  32 100 SE7       29.56F FOG              
ALEXANDRIA     CLOUDY    33  33 100 SE10      29.49F FOG     WCI  25  
SAINT CLOUD    FOG       34  34 100 SE6       29.53S VSB 1/4          
MINNEAPOLIS    CLOUDY    35  34  96 SE9       29.56S FOG              
$$

  *****  WEATHER ACROSS SOUTH DAKOTA  *****
  
CITY           SKY/WX    TMP DP  RH WIND       PRES   REMARKS
SIOUX FALLS    CLOUDY    39  39 100 SE10      29.43F FOG              
BROOKINGS      CLOUDY    36  36 100 SE17      29.40F FOG              
WATERTOWN      FOG       35  35 100 SE15      29.39F VSB 1/2          
HURON          CLOUDY    38  38 100 S13       29.35F                  
SISSETON         N/A     35  35 100 S14       29.42S                  
ABERDEEN       CLOUDY    33  30  88 SE5       29.36F                  
MITCHELL       CLOUDY    39  38  96 SE16      29.38S                  
PIERRE         FOG       20  18  92 SW5       29.33S VSB 3/4 WCI  13  
MOBRIDGE       CLOUDY    29  26  89 E9        29.29S FOG     WCI  20  
RAPID CITY     CLOUDY    36  29  75 N10       29.34R                  
$$

  *****  SOME WEATHER IN NEARBY STATES *****
  
CITY           SKY/WX    TMP DP  RH WIND       PRES   REMARKS
GLASGOW MT     FAIR      33  29  85 S5        29.37R                  
GREAT FALLS MT FAIR      30  19  63 S8        29.34S WCI  22          
CHEYENNE WY    FAIR      30  17  58 NW7       29.41S WCI  23          
SCOTTSBLUFF NE CLOUDY    36  32  85 W10       29.41S                  
OMAHA NE       CLOUDY    41  38  89 SE8       29.45F                  
DES MOINES IA  LGT RAIN  41  40  96 E8        29.51S VSB 1/2          
DAVENPORT IA   FOG       42  41  96 E7        29.58F VSB 1/4          
CHICAGO IL     DRZL/FOG  42  41  96 NE5       29.64F VSB 1/2          
EAU CLAIRE WI  CLOUDY    35  34  96 SE8       29.59S FOG              
LA CROSSE WI   CLOUDY    39  36  89 SE6       29.61R                  
$$

  *****  SOME NATIONAL WEATHER *****
  
CITY           SKY/WX    TMP DP  RH WIND       PRES   REMARKS
LA GUARDIA NY  CLOUDY    43  37  79 SE7       29.93S                  
RALEIGH NC     FOG       50  49  96 CALM      29.92R VSB 1/2          
ATLANTA GA     FAIR      63  58  83 S3        29.87R                  
NEW ORLEANS LA CLOUDY    70  68  93 S6        29.79R                  
OKLAHOMA CITY  FAIR      57  35  43 SW14      29.53R                  
ALBUQUERQUE NM CLOUDY    35  34  96 E9        29.65S                  
SALT LAKE CITY CLOUDY    35  30  82 S7        29.34S                  
LOS ANGELES CA MOCLDY    54  47  77 W32G38    29.48R                  
BOISE ID       CLOUDY    37  28  70 SE9       29.25R                  
SEATTLE WA     CLOUDY    48  34  58 SE9       29.13R                  
$$

*** WEATHER ACROSS MANITOBA...SASKATCHEWAN AND ONTARIO ***
                ***ONTARIO***
  
CITY           SKY/WX    TMP DP  RH WIND       PRES   REMARKS
GERALDTON      FOG       32  32 100 SE2       29.66S VSB 1/8          
THUNDER BAY    SNOW      32  32 100 NE2       29.68S VSB 3/8          
SIOUX LOOKOUT  FOG       34  34 100 VRB2      29.59F VSB 3/4          
TORONTO        DRIZZLE   37  37 100 E6        29.74R FOG              
BIG TROUT LK   CLOUDY    25  25 100 SE8       29.68S WCI  16          
PICKLE LAKE    FOG       34  34 100 S5        29.64R VSB 3/8          
DRYDEN         LGT RAIN  37  36  93 SE7       29.57F                  
KENORA         DRIZZLE   36  36 100 S10       29.52F FOG              
$$      
                *** MANITOBA***
  
CITY           SKY/WX    TMP DP  RH WIND       PRES   REMARKS
BRANDON        FOG       27  27 100 E8        29.41R VSB 1/4 WCI  18  
DAUPHIN        PTCLDY    21  18  86 E3        29.40S                  
ISLAND LAKE    DRFTSNOW  32  30  93 VRB2      29.59R VSB 1            
PILOT MOUND      N/A     32  32 100 SE15        N/A  WCI  22          
THE PAS        FOG       25  21  86 E5        29.42S VSB 1   WCI  19  
THOMPSON       LGT SNOW  27  25  93 E5        29.54F FOG     WCI  21  
WINNIPEG       LGT RAIN  36  34  93 SE12      29.47F                  
LYNN LAKE      CLOUDY    27  27 100 SE9       29.48F FOG     WCI  17  
CHURCHILL      FLURRIES  18  16  93 SE20      29.81S WCI   1          
GILLAM         FLURRIES  28  27  93 E5        29.65S WCI  23          
$$
                ***SASKATCHEWAN***
  
CITY           SKY/WX    TMP DP  RH WIND       PRES   REMARKS
ESTEVAN        CLOUDY    16  14  93 SE5       29.32F FOG     WCI   9  
KINDERSLEY     PTCLDY    28  27  93 NW6       29.33R WCI  22          
LLOYDMINSTER   MOCLDY    27  27 100 NW5       29.36S WCI  21          
PRINCE ALBERT  MOCLDY    28  27  93 NE3       29.34S                  
REGINA         CLOUDY    25  23  93 SE6       29.32R WCI  18          
YORKTON        CLOUDY    21  18  86 SE7       29.33S WCC1F1C2F2C3F3C4F4C5F5C6F6C7F7C8F8C9F9CaFaCbFbCcFcCdFdCe!

Return to Home page


Western Regional Climate Center, wrcc@dri.edu